STARLINK-1297, 45395

Orbit data source: Space-Track

STARLINK-1297, 45395 is a payload satellite owned by SpaceX/Seattle (US) in LEO that was launched on Wed, 18 Mar 2020 UTC via an FALCON 9 launch vehicle from the Air Force Eastern Test Range (AFETR). Payload-class satellites include a variety of spacecraft equipped with specific instruments for various scientific and technological missions. These include communications satellites like Starlink; space stations such as the ISS; scientific satellites like the Hubble; Earth observation satellites from companies like Planet Labs, Umbra, and HawkEye 360; GPS; miniature CubeSats for education and research; and military/defense satellites.

Loading next visibility...
Identifier
45395, 2020-019AM
Orbit
LEO
Country
Flag of USUS
Related business
Manufacturer
SpaceX/Seattle
Mission
Partially operational Commercial Communications
Bus & Motor
STARLINK, Unknown motor
Mass
260 kg wet, ~248 kg dry
Launch date (UTC)
2020-03-18 (7 years ago)
Launch vehicle
FALCON 9
Launch site
Air Force Eastern Test Range (AFETR)
Object type
Payload
Rocket body
Debris
Shape & HBR
Box + 1 Pan, 10.1 m
Radar Cross Section
13.562 m², Large (>1 m²)

Expand to show TLE details & history
Last TLE update: 9 hours ago

TLE from 9 hours ago
0 STARLINK-1297
1 45395U 20019AM  26267.33335648  .00309579  48831-4  77566-3 0  9991
2 45395  53.0314 224.6259 0005964  78.3360 116.6173 15.95204296  6043
Epoch: 2026-09-24T08:00Z
TLE epoch observation values (Epoch: 2026-09-24T08:00:01.999Z)
Latitude
-12.09735°
Longitude
-69.32313°
Altitude
292.786 km
Speed
7.731 km/s
True Right ascension
03h 35m 25s
True Declination
-12° 01' 20"
Sunlit
Object was in full shadow at epoch
Visualization orbit readout
Latitude
Unknown
Longitude
Unknown
Altitude
Unknown
Speed
Unknown
Apparent Right ascension
Unknown
Apparent Declination
Unknown
Sunlit
N/A
Visualization observer readout
Local Sidereal Time
09:56:12
Azimuth
Unknown
Elevation
Unknown
Doppler factor
Unknown
Orbital elements
Apogee altitude
292.006 km
Perigee altitude
284.054 km
Semi-major axis
6,666.167 km
Eccentricity
0.0006
Inclination
53.0314°
RAAN
224.6259°
Arg. of periapsis
78.336°
True anomaly
116.67838°
Mean anomaly
116.6173°
Eccentric anomaly
116.64784°
Mean motion
3.98776 °/min
Orbital period
90.28 mins
BSTAR
0.00077566
Loading maneuver chart data...
Computing Atmospheric mass density...
Loading historical data...
Loading historical data...
Loading historical data...
Loading historical data...
Loading historical data...
Loading historical data...
Loading historical data...

Documentation

Showing up to 5 results
|